Вернуться в каталог

STARLINK-31253

АктивенСвязьVLEO
NORAD 58830·PAYLOAD·🇺🇸 United States

Запущен Jan 24, 2024 с Vandenberg Space Force Base

Loading…

Ближайшие Пролёты (ближайшие 24 часа)

TLE

СвежийSource: CelesTrak SupGP

Эпоха: Sep 15, 2026, 02:37 UTC

1 58830C 24017E   26258.10951389 -.00016942  00000+0 -54495-3 0  2588
2 58830  53.1600  42.8142 0001235  87.2206 169.7976 15.31703159    19

Отслеживайте STARLINK-31253 в реальном времени с AllMySat

Download on the App Store